Regional Weather Roundup
Issued by NWS

Home | Current Version | Previous Version | Graphics & Text | Print | Product List | Glossary On
Versions: 1 2 3 4 5 6 7 8 9 10 11 12 13 14 15 16 17 18 19 20 21 22 23 24 25 26 27 28 29 30 31 32 33 34 35 36 37 38 39 40 41 42 43 44 45 46 47 48 49 50
741
ASUS43 KOAX 080810
RWRNE

WEATHER ROUNDUP FOR NEBRASKA
NATIONAL WEATHER SERVICE OMAHA NE
200 AM CST THU DEC 08 2016

NOTES: SATELLITE DATA IS BEING USED TO AUGMENT CLOUD COVER ABOVE
       12000 FEET.
       "FAIR" INDICATES FEW OR NO CLOUDS BELOW 12,000 FEET WITH NO
       SIGNIFICANT WEATHER AND/OR OBSTRUCTIONS TO VISIBILITY.

  * THESE STATIONS DO NOT REPORT WEATHER SUCH AS RAIN...SNOW OR FOG.

NEZ001>004-019>022-054>056-080900-
NEBRASKA PANHANDLE

CITY           SKY/WX    TMP DP  RH WIND       PRES   REMARKS
SCOTTSBLUFF    CLOUDY    -6 -12  75 NW5       30.49S WCI -17
ALLIANCE       CLEAR    -12 -17  78 W12       30.45S WCI -32
CHADRON        CLEAR      1  -7  68 W5        30.52S WCI  -9
KIMBALL        CLOUDY    -5  -9  82 W9        30.41S WCI -22
SIDNEY         CLEAR     -5 -11  75 W13       30.45R WCI -24
$$

NEZ057>060-069>072-079>082-080900-
SOUTHWEST NEBRASKA

CITY           SKY/WX    TMP DP  RH WIND       PRES   REMARKS
NORTH PLATTE   CLEAR      3  -2  79 W8        30.53R WCI -10
IMPERIAL       CLEAR      1  -7  68 W12       30.52S WCI -16
LEXINGTON      CLEAR      8   1  73 NW13      30.53R WCI  -8
MCCOOK         CLEAR      2  -5  72 W12       30.56R WCI -15
OGALLALA       CLEAR      1  -5  75 W6        30.52S WCI -10
$$

NEZ005>010-023>029-035>040-094-080900-
NORTH CENTRAL NEBRASKA

CITY           SKY/WX    TMP DP  RH WIND       PRES   REMARKS
VALENTINE      CLEAR      5  -5  63 NW16      30.50S WCI -14
AINSWORTH      CLEAR      6  -1  72 NW16      30.50R WCI -12
BROKEN BOW     CLEAR      8  -1  66 NW16G25   30.50S WCI -10
O`NEILL        CLEAR      8   0  68 NW25      30.49R WCI -13
ORD            CLEAR      9  -2  61 NW20      30.51R WCI -10
THEDFORD       CLEAR      3  -3  76 W9        30.51S WCI -12
$$

NEZ041-046>049-061>064-073>077-083>087-080900-
SOUTH CENTRAL NEBRASKA

CITY           SKY/WX    TMP DP  RH WIND       PRES   REMARKS
GRAND ISLAND   CLEAR     10   1  67 NW16      30.52R WCI  -7
AURORA         CLEAR     11   1  64 NW20      30.51S WCI  -7
HASTINGS       CLEAR     11   1  64 NW17G24   30.53R WCI  -6
HEBRON         CLEAR     13   5  68 NW9G16    30.55R WCI   1
HOLDREGE       CLEAR      8   1  70 NW10      30.53R WCI  -6
KEARNEY *      CLEAR     10  -2  56 NW10      30.53R WCI  -3
YORK           CLEAR     12   3  67 NW17G24   30.51R WCI  -5
$$

NEZ011>018-030>034-042>045-080900-
NORTHEAST NEBRASKA

CITY           SKY/WX    TMP DP  RH WIND       PRES   REMARKS
NORFOLK        CLEAR      9   0  67 NW20G30   30.46R WCI -10
ALBION         CLEAR     10   0  64 NW14G26   30.49R WCI  -7
BLAIR          CLEAR     14   6  70 W13G20    30.45S WCI  -1
FREMONT        CLEAR     13   5  71 W14       30.48S WCI  -3
TEKAMAH        CLEAR     13   4  67 NW20G28   30.48R WCI  -5
WAYNE          CLEAR     10   2  70 NW15G30   30.46R WCI  -6
$$

NEZ050>053-065>068-078-088>093-080900-
SOUTHEAST NEBRASKA

CITY           SKY/WX    TMP DP  RH WIND       PRES   REMARKS
LINCOLN        CLEAR     14   3  61 NW14      30.53R WCI  -1
OMAHA EPPLEY   PTCLDY    14   4  64 NW14      30.49R WCI  -1
BEATRICE       CLEAR     15   5  65 NW14      30.52R WCI   0
FALLS CITY     CLEAR     16   7  67 NW9       30.50R WCI   4
NEBRASKA CITY  CLEAR     15   2  57 NW16      30.48S WCI  -1
PLATTSMOUTH    CLEAR     14   3  61 NW13      30.48R WCI   0
$$

NEZ044-045-051>053-067-080900-
OMAHA AREA

CITY           SKY/WX    TMP DP  RH WIND       PRES   REMARKS
OMAHA EPPLEY   PTCLDY    14   4  64 NW14      30.49R WCI  -1
BLAIR          CLEAR     14   6  70 W13G20    30.45S WCI  -1
FREMONT        CLEAR     13   5  71 W14       30.48S WCI  -3
MILLARD        CLEAR     15   4  62 NW14      30.49R WCI   1
OFFUTT AFB     CLEAR     14   5  67 NW18G25   30.48R WCI  -3
PLATTSMOUTH    CLEAR     14   3  61 NW13      30.48R WCI   0
WAHOO          FAIR      14   4  67 NW16      30.49R WCI  -2
$$




USA.gov is the U.S. government's official web portal to all federal, state and local government web resources and services.